Weather in Igrim

Russia / Khanty-Mansi Autonomous Okrug — Yugra     63°11′46″N   64°25′18″E
temp.,
°C
wind,
m/s
gust,
m/s
humid.,
%
clouds,
%
prec.,
mm/h
press.,
hPa
HPBL,
m
24 may, tue
tue2423:00+5sse227457 0.0 100526
02:00+3s22835 0.0 100723
05:00+4sse11815 0.0 100939
08:00+9se12575 0.0 1010480
11:00+13se234316 0.0 10111465
14:00+15ese2339100 0.0 10111795
17:00+16ese343798 0.0 10122231
20:00+12se376999 0.1 1014700
25 may, wed
wed2523:00+10se257981 0.2 1015199
02:00+8sse119275 0.0 101618
05:00+9e1288100 0.0 101777
08:00+12e2472100 0.0 1017546
11:00+16ese3553100 0.0 10161347
14:00+13ese3872100 0.0 1016526
17:00+17e5962100 0.1 1014990
20:00+16e41178100 0.8 1012559
26 may, thu
thu2623:00+15e4148897 1.6 1011477
02:00+15ese41388100 0.0 1010402
05:00+16se41383100 0.0 1010447
08:00+18se4117699 0.2 1010546
11:00+22se6105635 0.2 1008908
14:00+26se6114076 0.0 10072495
17:00+20sw3665100 0.4 1007170
20:00+15wnw598549 3.6 1008563
27 may, fri
fri2723:00+13wsw1289100 4.9 1010123
02:00+12nw2691100 0.8 1009335
05:00+12nw2693100 1.4 1007357
08:00+10nw3692100 0.2 1006309
11:00+11wnw4592100 1.1 1005288
14:00+9wsw5795100 3.9 1005409
17:00+9nw3694100 9.8 1005308
20:00+9nnw3696100 1.9 1005293
28 may, sat
sat2823:00+9nw3698100 6.3 1003227
02:00+8w4898100 1.6 1002298
05:00+7wsw41096100 3.3 1003441
08:00+8sw4894100 0.6 1004573
11:00+9wsw41187100 0.6 1005712
14:00+12wnw147892 0.0 1006191
17:00+19wsw593951 0.0 10061963
20:00+17wsw385768 0.0 1007381